Dewpoint
25 26 46 52 52 52 48 48 48 51 52 52 52 54 53 54 56 56 53 53 52 52 59 59 61 63 63 64 65 65 63 66 68 67 66 68 69 70 68 72 71 71 72 70
25 24 50 50 49 49 48 47 45 49 53 54 51 54 55 55 56 57 56 56 54 52 54 58 60 61 62 63 65 64 64 67 67 67 68 70 70 72 70 70 72 71 71 71
24 35 50 47 47 46 47 45 43 45 54 53 51 51 53 54 55 55 58 58 57 56 54 59 60 60 61 62 64 64 67 67 68 66 69 71 71 68 67 69 71 70 70 70
23 38 47 45 42 43 45 46 42 46 48 49 52 46 50 53 55 55 55 56 58 59 56 57 59 58 57 60 64 66 67 65 66 69 70 69 68 64 68 63 67 69 70 70
20 21 18 27 24 37 36 44 39 29 32 44 44 44 47 51 51 54 57 56 56 59 58 56 56 56 57 59 63 64 68 68 68 68 71 70 68 66 67 70 68 71 71 71
15 15 15 19 19 20 20 27 27 26 27 37 44 48 46 48 50 53 53 54 55 58 58 55 59 57 58 60 62 62 66 68 69 69 70 70 69 69 70 69 70 71 71 71
12 9 13 18 15 17 17 25 23 32 34 33 47 48 49 50 49 54 52 53 57 58 58 58 59 56 61 58 61 62 65 67 68 71 70 71 70 69 69 69 67 69 69 68
16 11 11 16 16 20 23 21 22 30 32 31 43 41 42 50 49 48 48 53 56 58 57 59 59 58 57 60 63 63 65 65 67 66 70 70 71 71 71 70 71 70 69 68
18 20 14 16 18 18 17 24 21 19 24 30 37 41 44 50 53 53 54 53 54 56 57 58 59 59 59 59 61 63 64 66 67 66 69 71 71 71 71 70 71 70 68 69
19 21 16 16 18 17 29 20 18 24 24 28 34 39 41 42 43 43 47 48 51 55 58 58 59 61 63 63 64 63 65 66 68 68 68 70 72 72 73 72 71 67 70 70
41 26 24 18 17 16 18 20 30 22 26 21 33 37 40 42 45 44 44 50 52 52 54 58 59 59 61 64 65 66 66 68 68 68 68 68 72 72 73 72 71 70 71 69
21 18 26 24 20 22 23 23 22 24 23 32 34 36 43 44 44 46 47 48 51 53 55 56 57 61 61 64 65 67 71 71 69 68 69 69 71 72 72 72 71 70 71 69
25 25 23 23 33 38 38 38 32 24 21 26 30 39 44 45 47 48 48 52 54 54 53 55 56 58 63 63 67 68 67 69 70 69 69 69 71 72 72 72 71 71 71 71
39 25 28 27 32 40 39 36 36 29 27 30 37 36 36 40 47 46 42 48 54 55 55 56 59 61 63 65 66 66 66 67 68 71 70 70 70 70 71 70 70 73 72 71
26 27 32 27 27 36 37 37 36 28 31 27 35 32 33 40 45 49 49 48 53 53 53 54 59 63 65 67 68 71 70 70 71 71 71 70 71 72 72 72 72 72 72 71
32 29 31 29 28 27 30 33 25 23 24 25 26 28 36 44 46 44 43 43 45 50 52 55 58 66 67 68 68 71 71 70 71 71 70 72 72 72 72 71 71 71 72 71
36 32 34 29 31 28 31 31 27 29 30 28 26 30 34 39 41 42 44 45 48 60 61 65 65 65 65 66 68 67 68 70 69 69 70 70 71 70 71 70 70 71 71 72
39 39 39 36 36 31 32 35 35 32 33 29 29 32 31 37 39 43 45 47 56 63 64 65 67 65 66 67 67 68 68 68 69 69 70 70 70 69 70 71 70 70 70 70
41 40 37 35 35 34 38 37 34 32 33 34 30 33 37 41 39 45 50 61 62 64 64 65 64 66 66 67 68 68 68 68 68 68 69 70 70 68 69 69 69 70 70 70
36 37 37 37 36 34 38 39 35 36 33 41 44 43 43 42 39 56 59 61 61 62 62 62 63 64 65 66 66 66 65 65 65 68 68 68 68 68 67 68 69 69 70 68
36 38 34 41 40 41 42 40 37 31 39 48 46 45 46 58 59 62 62 62 62 62 62 63 64 63 63 64 64 63 62 63 63 65 65 68 67 67 68 68 68 67 65 63
39 38 38 38 38 37 41 38 35 46 48 47 47 47 61 62 62 61 62 61 61 60 61 62 62 62 62 63 62 61 61 63 63 62 63 63 63 65 65 63 64 62 62 60
39 45 40 41 41 46 45 45 47 44 42 46 48 46 47 61 60 60 62 61 62 61 62 63 62 62 63 63 63 61 61 61 62 61 61 61 61 61 61 61 61 61 60 60
50 50 48 42 46 48 49 47 47 43 44 46 49 57 60 59 59 59 60 62 62 62 62 63 62 62 63 62 62 61 61 62 61 59 58 58 57 57 59 60 60 60 59 59
52 52 50 48 50 49 50 52 49 44 46 52 57 59 59 58 59 60 61 61 61 62 61 62 61 62 62 62 61 62 62 62 61 59 58 57 56 55 53 50 52 55 51 56
50 51 48 48 53 53 53 54 52 45 51 55 57 58 59 59 58 59 59 59 59 61 62 61 61 61 62 63 63 63 63 62 62 59 59 58 57 57 56 55 53 48 47 47
Lifted_Index
4 2 0 -1 -1 -0 -0 -1 -1 -1 -2 -2 -2 -2 -1 -1 -2 -2 -1 -0 0 0 0 0 -0 -0 -0 -0 -0 0 1 0 -0 -0 -1 -1 -2 -2 -2 -3 -3 -3 -4 -4
3 2 -1 -2 -1 -0 -1 -1 -1 -2 -2 -2 -2 -1 -1 -1 -2 -2 -2 -1 -0 0 0 0 -0 -0 -0 -0 -0 0 1 0 0 -0 -1 -2 -3 -3 -2 -3 -3 -3 -3 -3
2 0 -2 -2 -2 -1 -1 -1 -2 -3 -3 -2 -1 -1 -1 -1 -2 -2 -2 -1 -1 -0 -0 -0 -0 0 -0 -0 -0 0 0 0 0 -0 -1 -2 -3 -2 -2 -2 -3 -3 -3 -3
1 -0 -2 -2 -2 -1 -2 -2 -2 -2 -2 -2 -1 -1 -1 -1 -1 -2 -2 -1 -1 -1 -1 -1 -0 0 1 0 -0 -1 -0 0 -0 -1 -2 -3 -2 -2 -1 -1 -2 -3 -3 -3
2 1 -0 -0 -0 -0 -1 -1 -1 -0 -1 -2 -2 -1 -1 -1 -1 -1 -1 -1 -1 -1 -1 -1 -0 0 1 1 -0 -1 -1 -1 -1 -2 -2 -3 -2 -2 -1 -1 -2 -3 -4 -4
2 2 1 1 1 1 1 1 0 0 -0 -1 -1 -1 -1 -0 -0 -0 -1 -1 -1 -1 -1 -1 -0 0 1 1 0 -0 -1 -2 -2 -2 -3 -3 -3 -3 -2 -2 -2 -3 -3 -4
2 1 1 2 2 2 2 1 1 0 -0 -1 -1 -1 -1 -1 -0 -0 -0 -0 -1 -2 -1 -1 -1 -0 0 0 0 -0 -1 -2 -2 -2 -3 -3 -3 -3 -3 -3 -2 -3 -3 -3
1 1 1 1 2 2 1 1 0 -0 -0 -1 -1 -1 -2 -1 -1 -1 -0 -1 -2 -2 -2 -2 -1 -1 -0 -0 -0 -0 -1 -1 -2 -2 -3 -3 -4 -4 -3 -3 -3 -3 -2 -2
-0 -0 0 1 1 1 1 0 0 -0 -0 -1 -1 -1 -1 -1 -1 -1 -1 -1 -2 -3 -3 -2 -2 -1 -1 -1 -1 -1 -1 -2 -2 -2 -3 -4 -4 -4 -4 -4 -3 -3 -2 -2
-0 -0 -0 0 1 1 1 1 0 -0 -0 -1 -1 -1 -1 -2 -2 -1 -1 -1 -2 -2 -3 -3 -2 -2 -1 -1 -1 -2 -2 -2 -3 -3 -3 -4 -4 -5 -5 -4 -4 -3 -2 -2
0 -0 -1 -0 0 1 1 0 0 0 -0 -0 -1 -1 -1 -1 -2 -2 -2 -2 -2 -2 -2 -3 -3 -3 -2 -2 -1 -2 -3 -3 -3 -3 -3 -4 -5 -5 -5 -4 -4 -3 -3 -3
1 0 -0 -0 0 0 0 -0 -0 0 -0 -0 -1 -1 -1 -1 -2 -2 -3 -3 -2 -2 -2 -3 -3 -3 -3 -2 -2 -2 -3 -4 -4 -4 -4 -4 -5 -5 -5 -5 -4 -4 -3 -3
1 1 0 -0 -0 -0 -1 -1 -0 0 -0 -0 -1 -1 -1 -1 -1 -2 -3 -3 -3 -2 -2 -2 -3 -4 -4 -4 -3 -3 -4 -4 -4 -4 -4 -5 -5 -5 -5 -5 -5 -4 -4 -4
1 1 1 0 -0 -0 -0 -0 -0 -0 -0 -0 -0 -0 -0 -1 -1 -1 -2 -2 -2 -2 -2 -2 -3 -4 -5 -5 -4 -4 -4 -4 -5 -5 -5 -5 -5 -5 -5 -4 -5 -5 -4 -4
1 1 1 1 1 0 -0 -0 -0 -0 -0 0 0 0 0 -0 -0 -0 -0 -1 -1 -1 -1 -1 -2 -4 -5 -5 -5 -5 -5 -4 -5 -5 -5 -5 -6 -6 -5 -5 -4 -5 -5 -4
1 1 1 1 1 1 0 -0 -0 0 1 1 1 1 1 0 0 1 1 1 0 -1 -1 -2 -2 -4 -4 -5 -5 -5 -5 -5 -5 -5 -5 -5 -5 -6 -5 -4 -4 -4 -4 -4
0 0 1 1 1 1 0 -0 -0 0 1 1 1 1 1 1 0 1 1 1 -0 -2 -3 -3 -3 -3 -4 -4 -4 -4 -5 -5 -5 -4 -4 -4 -5 -5 -4 -4 -3 -4 -4 -4
-0 -0 0 1 1 0 -0 -0 -0 0 0 1 1 2 1 1 0 0 0 -0 -2 -3 -4 -3 -3 -3 -3 -3 -3 -4 -4 -4 -4 -4 -4 -4 -4 -4 -4 -3 -3 -4 -4 -4
-1 -0 0 0 0 -0 -1 -1 -0 0 1 1 1 1 1 1 -0 -1 -2 -2 -3 -3 -3 -3 -3 -3 -3 -3 -3 -3 -3 -3 -3 -3 -3 -3 -3 -3 -3 -3 -3 -3 -3 -3
-0 -0 -0 -0 -0 -1 -1 -1 -0 0 0 1 1 1 0 -0 -1 -3 -4 -4 -3 -3 -3 -2 -2 -2 -2 -2 -2 -2 -2 -2 -2 -2 -2 -3 -3 -3 -3 -3 -3 -3 -3 -3
-1 -0 -0 -1 -1 -1 -1 -1 -0 0 -0 -0 -0 -1 -2 -3 -3 -4 -4 -3 -3 -3 -2 -2 -2 -1 -1 -1 -1 -1 -1 -1 -1 -1 -1 -2 -2 -2 -2 -2 -2 -2 -2 -2
-1 -1 -1 -1 -1 -1 -1 -0 0 -0 -0 -0 -0 -1 -3 -4 -4 -4 -4 -3 -3 -2 -2 -2 -2 -1 -1 -0 -0 0 0 0 0 -0 -1 -1 -1 -1 -1 -2 -2 -1 -1 -1
-1 -1 -1 -1 -1 -1 -1 -1 -1 -0 0 -0 -1 -1 -2 -4 -4 -4 -3 -3 -3 -3 -2 -2 -1 -1 -1 -1 -0 0 1 1 1 1 0 -0 -0 -0 -1 -1 -1 -1 -0 -0
-1 -1 -1 -1 -1 -1 -2 -1 -1 -0 -0 -1 -1 -2 -3 -3 -3 -3 -3 -3 -3 -3 -2 -2 -1 -2 -1 -1 -0 0 1 2 2 2 1 1 1 1 1 0 0 0 1 1
-1 -0 -0 -0 -1 -1 -1 -1 -1 -1 -1 -2 -3 -3 -3 -3 -3 -3 -3 -3 -2 -2 -2 -1 -1 -2 -2 -1 -1 -0 0 1 2 2 2 2 2 2 2 2 2 2 2 2
-1 -0 -0 -0 -0 -0 -1 -1 -1 -1 -2 -3 -3 -3 -3 -3 -2 -2 -2 -2 -2 -1 -1 -1 -1 -2 -2 -1 -1 -0 -0 0 1 2 3 3 3 3 4 4 4 4 4 4